Regional Weather Roundup
Issued by NWS

Home | Current Version | Previous Version | Graphics & Text | Print | Product List | Glossary On
Versions: 1 2 3 4 5 6 7 8 9 10 11 12 13 14 15 16 17 18 19 20 21 22 23 24 25 26 27 28 29 30 31 32 33 34 35 36 37 38 39 40 41 42 43 44 45 46 47 48 49 50
000
ASUS45 KTFX 030010
RWRMT
MONTANA REGIONAL WEATHER ROUNDUP
NATIONAL WEATHER SERVICE GREAT FALLS MT
500 PM MST FRI DEC 02 2016

NOTE: "FAIR" INDICATES FEW OR NO CLOUDS BELOW 12000 FEET WITH NO
SIGNIFICANT WEATHER AND/OR OBSTRUCTIONS TO VISIBILITY.

MTZ001>007-043-030100-
WEST OF THE DIVIDE

CITY           SKY/WX    TMP DP  RH WIND       PRES   REMARKS
KALISPELL      CLOUDY    33  25  72 S6        30.13F WCI  28
MISSOULA       CLOUDY    34  25  69 SE5       30.18F
BUTTE          CLOUDY    27  10  49 W5        30.08F
MULLAN PASS    CLOUDY    20  18  92 VRB6      30.04S WCI  12
ANACONDA         N/A     28  10  47 S3        30.09F
DEER LODGE       N/A     28  16  59 CALM      30.11F
EUREKA           N/A     36  25  64 SE6       30.12S WCI  31
HAMILTON         N/A     34  16  47 CALM      30.18F
LIBBY            N/A     36  27  69 SE5       30.12S
PLAINS           N/A     37  23  57 CALM      30.15F
RONAN            N/A     34  21  59 CALM      30.16F
$$

MTZ008-052>055-030100-
SOUTHWEST MONTANA

CITY           SKY/WX    TMP DP  RH WIND       PRES   REMARKS
BOZEMAN        CLEAR     24  16  71 SE6       30.11F WCI  17
DILLON         CLOUDY    26  10  50 SW10      30.10F WCI  16
W YELLOWSTONE  CLOUDY    18  14  86 SW12      30.15S WCI   5
ENNIS          CLEAR     23  12  63 SE9       30.17S WCI  13
THREE FORKS      N/A     31  31 100 S5        30.08F
$$

MTZ009-010-012-014-046-048-049-054-030100-
EAST SLOPES AND CENTRAL MONTANA

CITY           SKY/WX    TMP DP  RH WIND       PRES   REMARKS
CUT BANK       CLOUDY    33  17  51 W32G43    29.87F WCI  19
GREAT FALLS    CLEAR     28  17  63 SW17      29.96F WCI  16
MALMSTROM AFB  CLEAR     27  20  74 SW17      29.98F WCI  15
HELENA         CLOUDY    33  13  43 SW5       30.08F
CHOTEAU          N/A     32  18  55 W9        29.94S WCI  24
CONRAD           N/A     31  27  85 SW3       29.94F
$$

MTZ011-013-016-021-045-047-050-051-030100-
NORTH CENTRAL MONTANA

CITY           SKY/WX    TMP DP  RH WIND       PRES   REMARKS
HAVRE          CLEAR     33  23  66 SW14      29.95F WCI  23
LEWISTOWN      CLEAR     27  17  66 SW13      29.99F WCI  16
N BAR RANCH      N/A     28  10  47 NW7       29.99F HAZE    WCI  21
CHINOOK          N/A     34  21  60 S6        29.97F WCI  29
$$

MTZ017>020-022>027-061-062-030100-
NORTHEAST MONTANA

CITY           SKY/WX    TMP DP  RH WIND       PRES   REMARKS
GLASGOW        CLEAR     28  23  81 S9        30.02F WCI  19
JORDAN           N/A     29  20  69 SW8       30.03F WCI  21
SIDNEY         CLEAR     23  20  88 SW8       30.12F WCI  14
WOLF POINT     CLEAR     30  25  81 E5        30.06F
PLENTYWOOD       N/A     30  27  86 S10       30.07F WCI  21
POPLAR           N/A     27  23  86 SE7       30.07F WCI  19
SCOBEY           N/A     24  15  68 CALM      30.01F
$$

MTZ028>42-056>058-030100-
SOUTHCENTRAL AND SOUTHEAST MONTANA

CITY           SKY/WX    TMP DP  RH WIND       PRES   REMARKS
BAKER          CLEAR     25  22  88 SW6       30.14F WCI  18
BILLINGS       CLEAR     36  17  46 SW7       30.05F WCI  30
LIVINGSTON     CLEAR     29  15  56 W17       30.05F WCI  17
MILES CITY     CLEAR     31  25  78 S8        30.10F WCI  23
BIG TIMBER     CLEAR     30  12  47 W21       30.04F WCI  17
EKALAKA          N/A     30  23  75 SE2       30.08F
FORSYTH          N/A     32  25  74 SE7       30.07F WCI  26
LAUREL           N/A     33  10  38 SW3       30.03F
ROUNDUP          N/A     35  10  35 SW9       29.95S WCI  28
$$

REGIONAL REPORTS...DAKOTAS

CITY           SKY/WX    TMP DP  RH WIND       PRES   REMARKS
WILLISTON      MOCLDY    29  24  82 S6        30.12F WCI  23
MINOT          CLOUDY    28  24  85 SE8       30.17S WCI  20
DICKINSON      CLOUDY    29  25  85 S8        30.13S WCI  21
BEACH            N/A     19  19 100 S7        30.16S WCI  10
CROSBY         CLOUDY    28  28 100 S8        30.12F WCI  20
TIOGA          CLOUDY    27  27 100 S9        30.12F WCI  17
WATFORD CITY     N/A     27  25  93 S7        30.13F WCI  19
BISMARCK       CLOUDY    24  20  84 S6        30.24S WCI  17
GRAND FORKS    CLOUDY    32  22  66 CALM      30.27R
FARGO          CLOUDY    30  20  66 W7        30.30R WCI  23
BUFFALO SD       N/A     29  26  89 W8        30.09F WCI  21
RAPID CITY     CLEAR     29  24  82 SE3       30.19R
$$

REGIONAL REPORTS...WYOMING/IDAHO/WASHINGTON

CITY           SKY/WX    TMP DP  RH WIND       PRES   REMARKS
GILLETTE       MOCLDY    22  17  81 S8        30.12F WCI  12
SHERIDAN       CLEAR     29  20  69 S3        30.09F
BUFFALO WY     CLEAR     27  16  63 W7        30.08F WCI  19
CODY           CLEAR     32   5  32 SW15G21   30.08S WCI  22
YELLOWSTONE LA   N/A     15   8  73 W5        30.12R
IDAHO FALLS    CLOUDY    24  18  77 SW12      30.28S WCI  13
SALMON         CLOUDY    30  18  59 CALM      30.20S
BOISE          CLOUDY    36  22  56 S3        30.33F
SPOKANE        CLOUDY    35  32  88 S13       30.12F WCI  26
$$

REGIONAL REPORTS...ALBERTA

CITY           SKY/WX    TMP DP  RH WIND       PRES   REMARKS
EDMONTON       CLOUDY    27  23  86 S8        29.72F WCI  18
CALGARY        MOCLDY    39  19  45 W20G29    29.71F WCI  30
LETHBRIDGE     CLOUDY    39  19  45 W36G47    29.81S WCI  26
MEDICINE HAT   PTCLDY    36  25  64 S16       29.83F WCI  26
$$

REGIONAL REPORTS...SASKATCHEWAN

CITY           SKY/WX    TMP DP  RH WIND       PRES   REMARKS
SWIFT CURRENT  CLEAR     21  19  93 S12       29.90F WCI   9
REGINA         CLOUDY    27  23  86 SE10      30.04F WCI  17
SASKATOON      FLURRIES  27  21  80 SW8       30.01S WCI  18
ROCKGLEN         N/A     25  23  93 SW7         N/A  WCI  17
$$



USA.gov is the U.S. government's official web portal to all federal, state and local government web resources and services.